Regional Weather Roundup
Issued by NWS Binghamton, NY

Home | Current Version | Previous Version | Text Only | Print | Product List | Glossary On
Versions: 1 2 3 4 5 6 7 8 9 10 11 12 13 14 15 16 17 18 19 20 21 22 23 24 25 26 27 28 29 30 31 32 33 34 35 36 37 38 39 40 41 42 43 44 45 46 47 48 49 50
019
ASUS41 KBGM 250710
RWRBGM

REGIONAL WEATHER ROUNDUP
NATIONAL WEATHER SERVICE BINGHAMTON NY
200 AM EST SAT FEB 25 2017

Note: "fair" indicates few or no clouds below 12,000 feet with no
significant weather and/or obstructions to visibility.

* = Station(s) that does not report precipitation, such as rain,
snow, etc, also no thunder or fog.

NYZ009-015>018-022>025-036-037-044>046-055>057-062-250800
...Central New York...

CITY           SKY/WX    TMP DP  RH WIND       PRES   REMARKS
Binghamton     CLEAR     57  51  80 S13G25    29.69F
Cortland       FAIR      59  52  77 S8        29.66F
Dansville      CLOUDY    62  50  64 SE14G21   29.55F
Elmira         MOCLDY    62  50  64 VRB6      29.64F
Seneca Falls   SUNNY     57  50  77 S16       29.58F
Ithaca         MOCLDY    59  51  75 S20G25    29.64F
Hamilton       CLEAR     57  48  72 S10G17    29.67F
Monticello     PTCLDY    57  55  94 S6        29.81S
Norwich        CLEAR     55  48  76 S7        29.70F
Oneonta        CLEAR     55  48  76 S5        29.72F
Penn Yan       CLOUDY    61  49  64 S7        29.60F
Rome           PTCLDY    61  51  70 E8        29.66F
Sidney         CLEAR     57  55  94 SW7       29.72S
Syracuse       PTCLDY    62  51  67 S18G30    29.57F
$$

PAZ038>040-043-044-047-048-072-250800
...Northeast Pennsylvania...

CITY           SKY/WX    TMP DP  RH WIND       PRES   REMARKS
Hazleton       CLOUDY    59  55  88 SE6G18    29.80F
Scranton       PTCLDY    61  56  83 S8G21     29.74F
$$
&&
KEY
WCI = Wind Chill Index
VSB = Visibility
HX  = Heat Index
$$




USA.gov is the U.S. government's official web portal to all federal, state and local government web resources and services.